Home > Weather > Haugesund > Past weeks

Flag for Norway Weather for the Past 2 Weeks in Haugesund, Norway

Now
34 °F

Clear.


Feels Like: 27 °F
Forecast: 23 / 31 °F
Wind: 8 mph from Southeast

Location: Karmoy

Current Time: Feb 11, 2016 at 8:06:09 AM

Latest Report: Feb 11, 2016 at 7:20 AM


Visibility: 10 mi

Pressure: 29.39 "Hg

Humidity: 75%

Dew point: 27 °F

Location of HaugesundLocation

Historic Weather in Haugesund — Graph

°F

Haugesund Temperature Yesterday

Maximum temperature yesterday: 45 °F (at 3:20 PM)
Minimum temperature yesterday: 30 °F (at 9:20 PM)
Average temperature yesterday: 38 °F

High & Low Weather Summary for the Past Weeks

 TemperatureHumidityPressure
High48 °F (Jan 29, 11:50 AM)100% (Jan 27, 7:20 AM)30.01 "Hg (Jan 27, 7:20 AM)
Low30 °F (Feb 4, 7:20 PM)52% (Jan 31, 10:20 PM)28.56 "Hg (Feb 8, 7:50 AM)
Average41 °F85%29.22 "Hg
* Reported Jan 27 6:20 AM — Feb 11 6:50 AM, Haugesund, Weather by CustomWeather, © 2016

Note: Actual official high and low records may vary slightly from our data, if they occured in-between our weather recording intervals... More about our weather records

Advertising

Haugesund Weather History for the Previous 24 Hours

 ConditionsComfort  
Time TempWeatherWind HumidityBarometerVisibility
6:50 AM
Thu, Feb 11
34 °FClear.9 mph81%29.39 "Hg10 mi
6:20 AM34 °FClear.7 mph81%29.39 "Hg10 mi
5:50 AM32 °FClear.7 mph87%29.39 "Hg10 mi
5:20 AM32 °FPassing clouds.6 mph87%29.36 "HgN/A
4:50 AM32 °FPassing clouds.5 mph87%29.36 "HgN/A
4:20 AM32 °FPassing clouds.5 mph87%29.36 "HgN/A
3:50 AM34 °FPassing clouds.6 mph87%29.36 "HgN/A
3:20 AM34 °FOvercast.8 mph87%29.33 "HgN/A
2:50 AM34 °FOvercast.8 mph87%29.33 "HgN/A
2:20 AM34 °FOvercast.7 mph87%29.33 "HgN/A
1:50 AM34 °FOvercast.8 mph87%29.33 "HgN/A
1:20 AM34 °FOvercast.8 mph93%29.30 "HgN/A
12:50 AM34 °FOvercast.8 mph93%29.30 "HgN/A
11:50 PM
Wed, Feb 10
34 °FMostly cloudy.8 mph93%29.30 "HgN/A
10:50 PM34 °FClear.7 mph93%29.27 "Hg10 mi
10:20 PM30 °FClear.8 mph100%29.27 "Hg10 mi
9:50 PM32 °FClear.7 mph93%29.24 "Hg10 mi
9:20 PM30 °FClear.6 mph93%29.24 "Hg10 mi
8:50 PM32 °FClear.5 mph93%29.24 "Hg10 mi
8:20 PM32 °FClear.6 mph93%29.21 "Hg10 mi
7:50 PM32 °FClear.6 mph93%29.21 "Hg10 mi
7:20 PM37 °FClear.3 mph93%29.21 "Hg10 mi
6:50 PM39 °FPassing clouds.6 mph87%29.21 "HgN/A
6:20 PM39 °FClear.6 mph93%29.18 "Hg10 mi
5:50 PM39 °FClear.6 mph87%29.18 "Hg10 mi
5:20 PM41 °FClear.5 mph81%29.18 "Hg10 mi
4:50 PM41 °FScattered clouds.5 mph81%29.15 "HgN/A
4:20 PM43 °FScattered clouds.6 mph76%29.15 "HgN/A
3:50 PM43 °FScattered clouds.8 mph76%29.15 "HgN/A
3:20 PM45 °FPartly sunny.8 mph71%29.12 "HgN/A
2:50 PM43 °FPartly sunny.8 mph76%29.12 "HgN/A
2:20 PM43 °FScattered clouds.6 mph76%29.12 "HgN/A
1:50 PM43 °FScattered clouds.3 mph76%29.09 "HgN/A
1:20 PM43 °FScattered clouds.2 mph76%29.09 "HgN/A
12:50 PM41 °FScattered clouds.1 mph81%29.09 "HgN/A
12:20 PM41 °FScattered clouds.2 mph81%29.09 "HgN/A
11:50 AM41 °FScattered clouds.No wind76%29.09 "HgN/A
11:20 AM41 °FSunny.2 mph81%29.06 "Hg10 mi
10:50 AM37 °FSunny.5 mph87%29.06 "Hg10 mi
10:20 AM37 °FSunny.5 mph87%29.06 "Hg10 mi
9:50 AM36 °FSunny.6 mph93%29.03 "Hg10 mi
9:20 AM34 °FPassing clouds.6 mph93%29.03 "HgN/A
8:50 AM32 °FScattered clouds.6 mph93%29.03 "HgN/A
8:20 AM32 °FPassing clouds.6 mph93%29.00 "HgN/A
Weather by CustomWeather, © 2016

See weather overviewHow to use our weather pages